GW2328 Weather Reports


Display with metric or nautical units.
time (UTC)temp
F
wind
direction
speed
MPH
gust
MPH
rain 1hr
in
rain 24hr
in
rain mn
in
humidity
%
barometer
mb
20260508204909 75 114 1.0 5.0 0.00 0.00 0.00 36 1014.4
20260508204407 76 205 4.0 6.0 0.00 0.00 0.00 37 1014.4
20260508203902 76 258 3.0 3.0 0.00 0.00 0.00 37 1014.4
20260508203358 75 172 0.0 3.0 0.00 0.00 0.00 37 1014.4
20260508202854 75 128 2.0 2.0 0.00 0.00 0.00 37 1014.5
20260508202352 75 133 2.0 5.0 0.00 0.00 0.00 37 1014.8
20260508201849 74 150 1.0 5.0 0.00 0.00 0.00 38 1014.8
20260508201345 74 151 1.0 5.0 0.00 0.00 0.00 37 1014.9
20260508200842 74 175 1.0 7.0 0.00 0.00 0.00 36 1015.0
20260508200339 75 130 3.0 6.0 0.00 0.00 0.00 37 1015.0
20260508195834 75 120 1.0 6.0 0.00 0.00 0.00 37 1015.3
20260508195331 74 174 2.0 5.0 0.00 0.00 0.00 38 1015.4
20260508194827 74 139 1.0 7.0 0.00 0.00 0.00 37 1015.5
20260508194325 74 147 0.0 5.0 0.00 0.00 0.00 39 1015.6
20260508193821 74 147 3.0 9.0 0.00 0.00 0.00 37 1015.5
20260508193318 74 116 3.0 6.0 0.00 0.00 0.00 37 1015.5
20260508192809 75 77 3.0 3.0 0.00 0.00 0.00 38 1015.6
20260508192306 74 139 1.0 2.0 0.00 0.00 0.00 39 1015.7
20260508191803 72 139 3.0 5.0 0.00 0.00 0.00 38 1015.8
20260508191300 72 183 2.0 6.0 0.00 0.00 0.00 37 1016.2
20260508190758 73 153 4.0 7.0 0.00 0.00 0.00 38 1016.0
20260508190253 73 181 2.0 3.0 0.00 0.00 0.00 38 1016.2
20260508185750 72 145 1.0 3.0 0.00 0.00 0.00 37 1016.1
20260508185248 73 159 2.0 5.0 0.00 0.00 0.00 37 1016.2
20260508184744 74 163 7.0 10.0 0.00 0.00 0.00 37 1016.2
20260508184242 75 217 3.0 7.0 0.00 0.00 0.00 37 1016.3
20260508183739 76 175 0.0 5.0 0.00 0.00 0.00 38 1016.1
20260508183235 75 151 1.0 2.0 0.00 0.00 0.00 38 1016.2
20260508182731 75 282 2.0 2.0 0.00 0.00 0.00 38 1016.0
20260508182228 75 149 0.0 5.0 0.00 0.00 0.00 37 1015.8
20260508181724 74 176 1.0 6.0 0.00 0.00 0.00 37 1016.2
20260508181221 75 135 0.0 3.0 0.00 0.00 0.00 37 1016.1
20260508180717 74 150 1.0 2.0 0.00 0.00 0.00 37 1016.1
20260508180214 74 155 1.0 5.0 0.00 0.00 0.00 37 1016.1
20260508175711 75 268 2.0 5.0 0.00 0.00 0.00 38 1016.3
20260508175208 73 152 2.0 3.0 0.00 0.00 0.00 38 1016.7
20260508174706 72 198 3.0 6.0 0.00 0.00 0.00 37 1016.6
20260508174202 72 256 2.0 7.0 0.00 0.00 0.00 37 1016.9
20260508173659 72 184 5.0 7.0 0.00 0.00 0.00 37 1016.9
20260508173154 73 183 3.0 10.0 0.00 0.00 0.00 38 1017.4
20260508172652 72 156 1.0 6.0 0.00 0.00 0.00 39 1017.3
20260508172149 72 169 2.0 8.0 0.00 0.00 0.00 39 1017.4
20260508171645 72 229 3.0 7.0 0.00 0.00 0.00 40 1017.4
20260508171141 71 231 3.0 5.0 0.00 0.00 0.00 40 1017.6
20260508170639 72 166 1.0 6.0 0.00 0.00 0.00 40 1017.8
20260508170136 72 142 1.0 3.0 0.00 0.00 0.00 40 1018.0
20260508165633 72 94 1.0 2.0 0.00 0.00 0.00 40 1018.0
20260508165130 72 255 4.0 7.0 0.00 0.00 0.00 41 1018.3
20260508164627 72 257 4.0 6.0 0.00 0.00 0.00 41 1018.1
20260508164124 72 139 2.0 3.0 0.00 0.00 0.00 42 1018.2
20260508163621 71 149 2.0 3.0 0.00 0.00 0.00 41 1018.3
20260508163118 71 165 1.0 5.0 0.00 0.00 0.00 42 1018.5
20260508162614 70 263 1.0 6.0 0.00 0.00 0.00 42 1018.6
20260508162112 71 176 3.0 7.0 0.00 0.00 0.00 43 1018.6
20260508161608 71 146 1.0 2.0 0.00 0.00 0.00 44 1018.5
20260508161106 71 161 1.0 2.0 0.00 0.00 0.00 44 1018.7
20260508160604 71 149 2.0 8.0 0.00 0.00 0.00 45 1018.8
20260508160101 70 176 0.0 1.0 0.00 0.00 0.00 45 1018.6
20260508155558 70 145 2.0 5.0 0.00 0.00 0.00 45 1018.9
20260508155055 70 146 1.0 7.0 0.00 0.00 0.00 45 1018.9
20260508154552 70 233 1.0 2.0 0.00 0.00 0.00 46 1018.9
20260508154049 70 242 1.0 5.0 0.00 0.00 0.00 46 1019.1
20260508153545 70 145 2.0 2.0 0.00 0.00 0.00 48 1019.2
20260508153042 68 153 1.0 2.0 0.00 0.00 0.00 48 1019.2
20260508152540 68 143 3.0 7.0 0.00 0.00 0.00 48 1019.3
20260508152034 68 138 1.0 3.0 0.00 0.00 0.00 49 1019.2
20260508151531 67 147 2.0 3.0 0.00 0.00 0.00 51 1019.3
20260508151028 67 318 2.0 7.0 0.00 0.00 0.00 51 1019.6
20260508150526 66 213 2.0 7.0 0.00 0.00 0.00 53 1019.4
20260508150021 66 128 3.0 7.0 0.00 0.00 0.00 54 1019.9
20260508145518 66 186 2.0 5.0 0.00 0.00 0.00 57 1019.7
20260508145014 64 146 1.0 3.0 0.00 0.00 0.00 59 1019.8
20260508144512 64 213 2.0 2.0 0.00 0.00 0.00 61 1019.8
20260508144009 63 148 3.0 3.0 0.00 0.00 0.00 63 1020.0
20260508143507 62 122 0.0 5.0 0.00 0.00 0.00 66 1020.0
20260508143003 62 181 3.0 3.0 0.00 0.00 0.00 67 1020.1
20260508142500 61 143 1.0 2.0 0.00 0.00 0.00 70 1020.1
20260508141956 61 147 0.0 8.0 0.00 0.00 0.00 73 1020.0
20260508141453 60 150 0.0 7.0 0.00 0.00 0.00 75 1019.9
20260508140951 59 140 0.0 2.0 0.00 0.00 0.00 78 1020.4
20260508140448 59 134 1.0 1.0 0.00 0.00 0.00 80 1020.1
20260508135943 58 147 0.0 1.0 0.00 0.00 0.00 82 1020.1
20260508135440 57 152 0.0 1.0 0.00 0.00 0.00 83 1020.0
20260508134936 57 144 0.0 0.0 0.00 0.00 0.00 84 1020.1
20260508134433 56 142 1.0 1.0 0.00 0.00 0.00 85 1020.1
20260508133930 55 141 0.0 1.0 0.00 0.00 0.00 87 1020.3
20260508133428 55 168 0.0 1.0 0.00 0.00 0.00 88 1020.2
20260508132924 54 151 0.0 1.0 0.00 0.00 0.00 89 1020.3
20260508132422 53 163 1.0 2.0 0.00 0.00 0.00 91 1020.0
20260508131919 53 146 0.0 1.0 0.00 0.00 0.00 92 1020.4
20260508131414 52 151 1.0 1.0 0.00 0.00 0.00 93 1020.1
20260508130911 50 151 0.0 1.0 0.00 0.00 0.00 94 1020.3
20260508130408 50 162 0.0 1.0 0.00 0.00 0.00 94 1020.3
20260508125904 49 147 0.0 0.0 0.00 0.00 0.00 95 1020.1
20260508125400 48 151 0.0 0.0 0.00 0.00 0.00 95 1020.1
20260508124858 48 150 0.0 0.0 0.00 0.00 0.00 95 1020.1
20260508124355 47 145 0.0 0.0 0.00 0.00 0.00 95 1020.0
20260508123853 47 143 0.0 0.0 0.00 0.00 0.00 95 1020.0
20260508123352 46 148 0.0 0.0 0.00 0.00 0.00 95 1020.2
20260508122847 45 147 0.0 0.0 0.00 0.00 0.00 95 1020.2
20260508122344 45 147 0.0 0.0 0.00 0.00 0.00 95 1020.1
20260508121841 44 146 0.0 0.0 0.00 0.00 0.00 95 1020.2
20260508121340 44 146 0.0 0.0 0.00 0.00 0.00 95 1020.1
20260508120837 43 146 0.0 0.0 0.00 0.00 0.00 95 1020.2
20260508120335 43 146 0.0 0.0 0.00 0.00 0.00 95 1020.2
20260508115832 43 146 0.0 0.0 0.00 0.00 0.00 95 1020.0
20260508115330 42 147 0.0 0.0 0.00 0.00 0.00 95 1020.2
20260508114826 42 147 0.0 0.0 0.00 0.00 0.00 95 1020.0
20260508114323 42 147 0.0 0.0 0.00 0.00 0.00 94 1019.9
20260508113820 41 147 0.0 0.0 0.00 0.00 0.00 94 1019.8
20260508113318 41 147 0.0 0.0 0.00 0.00 0.00 94 1019.8
20260508112814 41 147 0.0 0.0 0.00 0.00 0.00 94 1019.8
20260508112311 40 147 0.0 0.0 0.00 0.00 0.00 94 1019.8
20260508111808 40 147 0.0 0.0 0.00 0.00 0.00 94 1019.7
20260508111305 40 147 0.0 0.0 0.00 0.00 0.00 94 1019.7
20260508110802 40 147 0.0 0.0 0.00 0.00 0.00 94 1019.6
20260508110300 40 147 0.0 0.0 0.00 0.00 0.00 94 1019.7
20260508105759 40 147 0.0 0.0 0.00 0.00 0.00 94 1019.4
20260508105256 40 146 0.0 0.0 0.00 0.00 0.00 94 1019.5
20260508104753 40 146 0.0 0.0 0.00 0.00 0.00 94 1019.5
20260508104250 40 146 0.0 0.0 0.00 0.00 0.00 94 1019.6
20260508103747 40 146 0.0 0.0 0.00 0.00 0.00 93 1019.5
20260508103244 40 146 0.0 0.0 0.00 0.00 0.00 93 1019.4
20260508102741 41 146 0.0 0.0 0.00 0.00 0.00 93 1019.6
20260508102240 40 146 0.0 0.0 0.00 0.00 0.00 93 1019.7
20260508101736 40 146 0.0 0.0 0.00 0.00 0.00 93 1019.4
20260508101234 40 146 0.0 0.0 0.00 0.00 0.00 93 1019.4
20260508100732 41 146 0.0 0.0 0.00 0.00 0.00 93 1019.5
20260508100229 41 146 0.0 0.0 0.00 0.00 0.00 93 1019.6
20260508095725 40 146 0.0 0.0 0.00 0.00 0.00 93 1019.3
20260508095223 40 145 0.0 0.0 0.00 0.00 0.00 93 1019.5
20260508094719 40 145 0.0 0.0 0.00 0.00 0.00 93 1019.3
20260508094216 40 145 0.0 0.0 0.00 0.00 0.00 93 1019.4
20260508093714 41 145 0.0 0.0 0.00 0.00 0.00 93 1019.4
20260508093212 41 145 0.0 0.0 0.00 0.00 0.00 93 1019.5
20260508092708 41 145 0.0 0.0 0.00 0.00 0.00 92 1019.4
20260508092206 41 145 0.0 0.0 0.00 0.00 0.00 92 1019.5
20260508091704 40 145 0.0 0.0 0.00 0.00 0.00 92 1019.6
20260508091201 41 145 0.0 0.0 0.00 0.00 0.00 92 1019.5
20260508090659 41 145 0.0 0.0 0.00 0.00 0.00 92 1019.3
20260508090156 41 145 0.0 0.0 0.00 0.00 0.00 92 1019.7
20260508085651 40 145 0.0 0.0 0.00 0.00 0.00 92 1019.3
20260508085149 40 145 0.0 0.0 0.00 0.00 0.00 92 1019.3
20260508084645 40 145 0.0 0.0 0.00 0.00 0.00 92 1019.4
20260508084142 41 145 0.0 0.0 0.00 0.00 0.00 92 1019.5
20260508083640 41 144 0.0 0.0 0.00 0.00 0.00 91 1019.4
20260508083138 41 144 0.0 0.0 0.00 0.00 0.00 91 1019.6
20260508082632 40 145 0.0 0.0 0.00 0.00 0.00 91 1019.6
20260508082130 40 145 0.0 0.0 0.00 0.00 0.00 91 1019.4
20260508081627 40 145 0.0 0.0 0.00 0.00 0.00 91 1019.4
20260508081124 40 145 0.0 0.0 0.00 0.00 0.00 91 1019.4
20260508080621 40 145 0.0 0.0 0.00 0.00 0.00 91 1019.4
20260508080119 40 145 0.0 0.0 0.00 0.00 0.00 91 1019.5
20260508075615 40 145 0.0 0.0 0.00 0.00 0.00 91 1019.5
20260508075112 41 145 0.0 0.0 0.00 0.00 0.00 91 1019.6
20260508074610 41 145 0.0 0.0 0.00 0.00 0.00 90 1019.7
20260508074107 41 145 0.0 0.0 0.00 0.00 0.00 90 1019.5
20260508073604 41 145 0.0 0.0 0.00 0.00 0.00 90 1019.5
20260508073102 41 145 0.0 0.0 0.00 0.00 0.00 90 1019.6
20260508072557 41 145 0.0 0.0 0.00 0.00 0.00 90 1019.5
20260508072054 41 145 0.0 0.0 0.00 0.00 0.00 90 1019.7
20260508071552 41 145 0.0 0.0 0.00 0.00 0.00 90 1019.7
20260508071050 41 145 0.0 0.0 0.00 0.00 0.00 90 1019.7
20260508070548 42 145 0.0 0.0 0.00 0.00 0.00 89 1019.7
20260508070046 42 145 0.0 0.0 0.00 0.00 0.00 89 1019.6
20260508065543 42 145 0.0 0.0 0.00 0.00 0.00 89 1019.9
20260508065041 41 145 0.0 0.0 0.00 0.00 0.00 89 1019.7
20260508064538 42 145 0.0 0.0 0.00 0.00 0.00 89 1019.8
20260508064036 42 145 0.0 0.0 0.00 0.00 0.00 89 1019.8
20260508063533 42 145 0.0 0.0 0.00 0.00 0.00 88 1019.9
20260508063031 42 145 0.0 0.0 0.00 0.00 0.00 88 1019.9
20260508062528 42 145 0.0 0.0 0.00 0.00 0.00 88 1019.8
20260508062025 42 145 0.0 0.0 0.00 0.00 0.00 88 1019.9
20260508061523 42 145 0.0 0.0 0.00 0.00 0.00 88 1019.8
20260508061019 42 145 0.0 0.0 0.00 0.00 0.00 88 1019.9
20260508060516 42 145 0.0 0.0 0.00 0.00 0.00 87 1020.2
20260508060014 42 145 0.0 0.0 0.00 0.00 0.00 87 1020.1
20260508055509 43 145 0.0 0.0 0.00 0.00 0.00 87 1020.2
20260508055006 43 145 0.0 0.0 0.00 0.00 0.00 87 1020.0
20260508054503 43 145 0.0 0.0 0.00 0.00 0.00 86 1020.2
20260508054000 43 145 0.0 0.0 0.00 0.00 0.00 86 1020.3
20260508053456 43 145 0.0 0.0 0.00 0.00 0.00 86 1020.4
20260508052954 43 145 0.0 0.0 0.00 0.00 0.00 86 1020.3
20260508052452 43 145 0.0 0.0 0.00 0.00 0.00 86 1020.4
20260508051948 43 145 0.0 0.0 0.00 0.00 0.00 85 1020.3
20260508051443 43 145 0.0 0.0 0.00 0.00 0.00 85 1020.1
20260508050940 43 145 0.0 0.0 0.00 0.00 0.00 85 1020.1
20260508050437 44 145 0.0 0.0 0.00 0.00 0.00 85 1019.9
20260508045933 43 145 0.0 0.0 0.00 0.00 0.00 84 1019.9
20260508045431 44 145 0.0 0.0 0.00 0.00 0.00 84 1019.8
20260508044928 44 145 0.0 0.0 0.00 0.00 0.00 84 1019.9
20260508044425 44 145 0.0 0.0 0.00 0.00 0.00 83 1019.9
20260508043920 44 145 0.0 0.0 0.00 0.00 0.00 83 1019.9
20260508043418 44 145 0.0 0.0 0.00 0.00 0.00 83 1019.9
20260508042914 44 145 0.0 0.0 0.00 0.00 0.00 83 1020.0
20260508042412 44 145 0.0 0.0 0.00 0.00 0.00 82 1020.2
20260508041909 45 145 0.0 0.0 0.00 0.00 0.00 82 1020.1
20260508041405 45 145 0.0 0.0 0.00 0.00 0.00 82 1020.1
20260508040856 45 145 0.0 0.0 0.00 0.00 0.00 81 1020.1
20260508040353 45 145 0.0 0.0 0.00 0.00 0.00 81 1020.0
20260508035851 45 145 0.0 0.0 0.00 0.00 0.00 81 1020.1
20260508035348 45 145 0.0 0.0 0.00 0.00 0.00 80 1020.1
20260508034845 46 145 0.0 0.0 0.00 0.00 0.00 80 1020.1
20260508034342 46 145 0.0 0.0 0.00 0.00 0.00 79 1020.3
20260508033838 46 145 0.0 0.0 0.00 0.00 0.00 79 1020.2
20260508033337 46 145 0.0 0.0 0.00 0.00 0.00 78 1020.0
20260508032834 46 145 0.0 0.0 0.00 0.00 0.00 78 1020.1
20260508032331 46 145 0.0 0.0 0.00 0.00 0.00 77 1019.9
20260508031828 46 145 0.0 0.0 0.00 0.00 0.00 77 1020.2
20260508031325 47 145 0.0 0.0 0.00 0.00 0.00 76 1020.2
20260508030821 47 145 0.0 0.0 0.00 0.00 0.00 75 1020.1
20260508030318 47 145 0.0 0.0 0.00 0.00 0.00 75 1020.2
20260508025815 47 145 0.0 0.0 0.00 0.00 0.00 74 1020.3
20260508025312 47 144 0.0 0.0 0.00 0.00 0.00 73 1020.3
20260508024809 47 144 0.0 0.0 0.00 0.00 0.00 72 1020.3
20260508024305 48 145 0.0 0.0 0.00 0.00 0.00 72 1020.2
20260508023802 48 145 0.0 0.0 0.00 0.00 0.00 71 1020.0
20260508023259 48 145 0.0 0.0 0.00 0.00 0.00 70 1020.0
20260508022755 48 144 0.0 0.0 0.00 0.00 0.00 69 1019.9
20260508022252 48 144 0.0 0.0 0.00 0.00 0.00 68 1019.9
20260508021749 49 144 0.0 0.0 0.00 0.00 0.00 67 1019.8
20260508021244 49 144 0.0 0.0 0.00 0.00 0.00 66 1019.8
20260508020741 49 144 0.0 0.0 0.00 0.00 0.00 66 1019.5
20260508020239 50 144 0.0 0.0 0.00 0.00 0.00 65 1019.4
20260508015735 50 144 0.0 0.0 0.00 0.00 0.00 64 1019.5
20260508015233 50 144 0.0 0.0 0.00 0.00 0.00 63 1019.5
20260508014730 51 144 0.0 0.0 0.00 0.00 0.00 62 1019.7
20260508014226 51 144 0.0 0.0 0.00 0.00 0.00 61 1019.4
20260508013722 51 145 0.0 0.0 0.00 0.00 0.00 60 1019.6
20260508013219 51 144 0.0 0.0 0.00 0.00 0.00 59 1019.4
20260508012717 52 144 0.0 0.0 0.00 0.00 0.00 58 1019.3
20260508012213 52 145 0.0 0.0 0.00 0.00 0.00 58 1019.3
20260508011711 53 145 0.0 0.0 0.00 0.00 0.00 57 1019.0
20260508011208 53 145 0.0 0.0 0.00 0.00 0.00 56 1019.1
20260508010704 54 145 0.0 0.0 0.00 0.00 0.00 55 1019.0
20260508010203 54 144 0.0 0.0 0.00 0.00 0.00 53 1018.9
20260508005659 55 144 0.0 0.0 0.00 0.00 0.00 52 1018.8
20260508004803 55 144 0.0 0.0 0.00 0.00 0.00 48 1018.9
20260508004259 55 144 0.0 0.0 0.00 0.00 0.00 48 1018.9
20260508003755 56 144 0.0 0.0 0.00 0.00 0.00 48 1018.8
20260508003253 56 144 0.0 0.0 0.00 0.00 0.00 47 1018.7
20260508002749 57 144 0.0 0.0 0.00 0.00 0.00 46 1018.7
20260508002247 57 144 0.0 0.0 0.00 0.00 0.00 45 1018.7
20260508001742 58 150 0.0 0.0 0.00 0.00 0.00 44 1018.6
20260508001238 58 150 0.0 0.0 0.00 0.00 0.00 43 1018.7
20260508000734 59 151 0.0 0.0 0.00 0.00 0.00 43 1018.6
20260508000234 59 151 0.0 0.0 0.00 0.00 0.00 42 1018.5
20260507235728 59 151 0.0 0.0 0.00 0.00 0.00 41 1018.6
20260507235226 60 151 0.0 0.0 0.00 0.00 0.00 41 1018.4
20260507234722 60 151 0.0 0.0 0.00 0.00 0.00 40 1018.6
20260507234219 60 209 1.0 2.0 0.00 0.00 0.00 40 1018.4
20260507233715 60 148 0.0 1.0 0.00 0.00 0.00 40 1018.4
20260507233214 61 145 0.0 1.0 0.00 0.00 0.00 40 1018.4
20260507232710 61 147 0.0 0.0 0.00 0.00 0.00 40 1018.5
20260507232208 61 149 0.0 0.0 0.00 0.00 0.00 40 1018.5
20260507231704 61 150 0.0 1.0 0.00 0.00 0.00 39 1018.6
20260507231201 61 141 1.0 2.0 0.00 0.00 0.00 39 1018.4
20260507230657 62 145 0.0 0.0 0.00 0.00 0.00 39 1018.4
20260507230154 62 139 0.0 1.0 0.00 0.00 0.00 38 1018.7
20260507225649 62 139 0.0 1.0 0.00 0.00 0.00 38 1018.5
20260507225146 62 161 1.0 1.0 0.00 0.00 0.00 37 1018.7
20260507224641 62 151 1.0 2.0 0.00 0.00 0.00 38 1018.7
20260507224138 62 142 0.0 0.0 0.00 0.00 0.00 38 1018.6
20260507223634 62 138 0.0 0.0 0.00 0.00 0.00 38 1018.7
20260507223131 62 131 0.0 1.0 0.00 0.00 0.00 37 1018.6
20260507222628 63 144 0.0 0.0 0.00 0.00 0.00 38 1018.7
20260507222124 63 133 0.0 0.0 0.00 0.00 0.00 37 1018.5
20260507221621 63 162 1.0 1.0 0.00 0.00 0.00 36 1018.6
20260507221117 63 150 0.0 2.0 0.00 0.00 0.00 37 1018.7
20260507220615 63 150 1.0 2.0 0.00 0.00 0.00 38 1018.4
20260507220112 63 144 0.0 1.0 0.00 0.00 0.00 37 1018.4
20260507215608 64 149 1.0 2.0 0.00 0.00 0.00 37 1018.4
20260507215106 64 86 2.0 2.0 0.00 0.00 0.00 37 1018.7
20260507214603 65 148 1.0 2.0 0.00 0.00 0.00 37 1018.5
20260507214059 65 171 2.0 2.0 0.00 0.00 0.00 37 1018.6
20260507213555 65 153 1.0 1.0 0.00 0.00 0.00 38 1018.3
20260507213053 64 152 0.0 0.0 0.00 0.00 0.00 36 1018.3
20260507212548 65 150 1.0 2.0 0.00 0.00 0.00 35 1018.4
20260507212046 67 144 0.0 1.0 0.00 0.00 0.00 37 1018.8
20260507211542 66 160 0.0 2.0 0.00 0.00 0.00 37 1018.5
20260507211038 67 142 0.0 1.0 0.00 0.00 0.00 38 1018.7
20260507210536 67 126 1.0 2.0 0.00 0.00 0.00 38 1018.7
20260507210032 66 133 0.0 1.0 0.00 0.00 0.00 38 1018.8
20260507205529 64 160 2.0 5.0 0.00 0.00 0.00 37 1018.9